sat.trackr.live / text

‹ back to catalog

ELEKTRO-L 4

NORAD 55506 · 2023-016A

PAYLOAD ACTIVE UNKNOWN

§ Identity

Operator
Country
CIS
Launch date
2023-02-05
Launch site
TYMSC
Launch vehicle
Mass (kg)
RCS (m²)

Purposes: comms

External: N2YO · Heavens-Above · Gunter

§ Orbital elements

Epoch: 2026-09-19T13:03:02.354400Z

Period
1,436.12 min
Inclination
0.0630°
Eccentricity
0.0002236
Mean motion
1.00270474 rev/d
Perigee alt
35,777.5 km
Apogee alt
35,796.4 km
Semi-major
42,165.1 km
B*
0.0000e+0
RAAN
57.3318°
Arg perigee
138.2578°
Mean anomaly
164.4143°
Rev number
1,328

§ Raw data

ELEKTRO-L 41 55506U 23016A   26262.54377725 -.00000063  00000+0  00000+0 0  99992 55506   0.0630  57.3318 0002236 138.2578 164.4143  1.00270474 13288

JSON: /api/v1/satellites/55506 · /tle

For live sub-satellite position, see the globe view (requires WebGL).

§ Visibility from observer

Set your observer location to see the next 7 days of passes ≥ 10°. The values pass through the URL so the page stays shareable.

No JS? Fill the form by hand. The geolocation button needs JavaScript.